Year,Month,Day,Hour,Minute,Value (Times are PST for temperature in C)
2008,11,19,00,00,-0.30
2008,11,19,00,01,-0.30
2008,11,19,00,02,-0.30
2008,11,19,00,03,-0.30
2008,11,19,00,04,-0.30
2008,11,19,00,05,-0.30
2008,11,19,00,06,-0.30
2008,11,19,00,07,-0.30
2008,11,19,00,08,-0.30
2008,11,19,00,09,-0.30
2008,11,19,00,10,-0.30
2008,11,19,00,11,-0.30
2008,11,19,00,12,-0.30
2008,11,19,00,13,-0.30
2008,11,19,00,14,-0.30
2008,11,19,00,15,-0.30
2008,11,19,00,16,-0.30
2008,11,19,00,17,-0.30
2008,11,19,00,18,-0.40
2008,11,19,00,19,-0.40
2008,11,19,00,20,-0.40
2008,11,19,00,21,-0.40
2008,11,19,00,22,-0.40
2008,11,19,00,23,-0.40
2008,11,19,00,24,-0.40
2008,11,19,00,25,-0.40
2008,11,19,00,26,-0.40
2008,11,19,00,27,-0.40
2008,11,19,00,28,-0.40
2008,11,19,00,29,-0.40
2008,11,19,00,30,-0.50
2008,11,19,00,31,-0.50
2008,11,19,00,32,-0.40
2008,11,19,00,33,-0.40
2008,11,19,00,34,-0.40
2008,11,19,00,35,-0.40
2008,11,19,00,36,-0.40
2008,11,19,00,37,-0.40
2008,11,19,00,38,-0.40
2008,11,19,00,39,-0.50
2008,11,19,00,40,-0.50
2008,11,19,00,41,-0.50
2008,11,19,00,42,-0.50
2008,11,19,00,43,-0.50
2008,11,19,00,44,-0.60
2008,11,19,00,45,-0.60
2008,11,19,00,46,-0.60
2008,11,19,00,47,-0.60
2008,11,19,00,48,-0.60
2008,11,19,00,49,-0.60
2008,11,19,00,50,-0.60
2008,11,19,00,51,-0.60
2008,11,19,00,52,-0.60
2008,11,19,00,53,-0.60
2008,11,19,00,54,-0.60
2008,11,19,00,55,-0.60
2008,11,19,00,56,-0.60
2008,11,19,00,57,-0.60
2008,11,19,00,58,-0.60
2008,11,19,00,59,-0.60
2008,11,19,01,00,-0.60
2008,11,19,01,01,-0.60
2008,11,19,01,02,-0.60
2008,11,19,01,03,-0.60
2008,11,19,01,04,-0.60
2008,11,19,01,05,-0.60
2008,11,19,01,06,-0.60
2008,11,19,01,07,-0.60
2008,11,19,01,08,-0.60
2008,11,19,01,09,-0.60
2008,11,19,01,10,-0.60
2008,11,19,01,11,-0.60
2008,11,19,01,12,-0.60
2008,11,19,01,13,-0.60
2008,11,19,01,14,-0.60
2008,11,19,01,15,-0.60
2008,11,19,01,16,-0.60
2008,11,19,01,17,-0.60
2008,11,19,01,18,-0.60
2008,11,19,01,19,-0.60
2008,11,19,01,20,-0.60
2008,11,19,01,21,-0.60
2008,11,19,01,22,-0.60
2008,11,19,01,23,-0.60
2008,11,19,01,24,-0.60
2008,11,19,01,25,-0.60
2008,11,19,01,26,-0.60
2008,11,19,01,27,-0.70
2008,11,19,01,28,-0.70
2008,11,19,01,29,-0.70
2008,11,19,01,30,-0.70
2008,11,19,01,31,-0.70
2008,11,19,01,32,-0.70
2008,11,19,01,33,-0.70
2008,11,19,01,34,-0.70
2008,11,19,01,35,-0.70
2008,11,19,01,36,-0.80
2008,11,19,01,37,-0.80
2008,11,19,01,38,-0.80
2008,11,19,01,39,-0.80
2008,11,19,01,40,-0.80
2008,11,19,01,41,-0.80
2008,11,19,01,42,-0.80
2008,11,19,01,43,-0.80
2008,11,19,01,44,-0.80
2008,11,19,01,45,-0.80
2008,11,19,01,46,-0.80
2008,11,19,01,47,-0.80
2008,11,19,01,48,-0.80
2008,11,19,01,49,-0.80
2008,11,19,01,50,-0.80
2008,11,19,01,51,-0.80
2008,11,19,01,52,-0.80
2008,11,19,01,53,-0.80
2008,11,19,01,54,-0.80
2008,11,19,01,55,-0.80
2008,11,19,01,56,-0.80
2008,11,19,01,57,-0.80
2008,11,19,01,58,-0.80
2008,11,19,01,59,-0.80
2008,11,19,02,00,-0.80
2008,11,19,02,01,-0.80
2008,11,19,02,02,-0.80
2008,11,19,02,03,-0.80
2008,11,19,02,04,-0.70
2008,11,19,02,05,-0.70
2008,11,19,02,06,-0.70
2008,11,19,02,07,-0.70
2008,11,19,02,08,-0.70
2008,11,19,02,09,-0.70
2008,11,19,02,10,-0.70
2008,11,19,02,11,-0.70
2008,11,19,02,12,-0.70
2008,11,19,02,13,-0.70
2008,11,19,02,14,-0.70
2008,11,19,02,15,-0.70
2008,11,19,02,16,-0.70
2008,11,19,02,17,-0.70
2008,11,19,02,18,-0.70
2008,11,19,02,19,-0.70
2008,11,19,02,20,-0.70
2008,11,19,02,21,-0.70
2008,11,19,02,22,-0.70
2008,11,19,02,23,-0.70
2008,11,19,02,24,-0.70
2008,11,19,02,25,-0.70
2008,11,19,02,26,-0.70
2008,11,19,02,27,-0.70
2008,11,19,02,28,-0.60
2008,11,19,02,29,-0.60
2008,11,19,02,30,-0.50
2008,11,19,02,31,-0.50
2008,11,19,02,32,-0.40
2008,11,19,02,33,-0.30
2008,11,19,02,34,-0.30
2008,11,19,02,35,-0.30
2008,11,19,02,36,-0.10
2008,11,19,02,37,0.20
2008,11,19,02,38,0.30
2008,11,19,02,39,0.30
2008,11,19,02,40,0.30
2008,11,19,02,41,0.30
2008,11,19,02,42,0.30
2008,11,19,02,43,0.30
2008,11,19,02,44,0.20
2008,11,19,02,45,0.20
2008,11,19,02,46,0.20
2008,11,19,02,47,0.20
2008,11,19,02,48,0.20
2008,11,19,02,49,0.20
2008,11,19,02,50,0.30
2008,11,19,02,51,0.40
2008,11,19,02,52,0.40
2008,11,19,02,53,0.40
2008,11,19,02,54,0.50
2008,11,19,02,55,0.50
2008,11,19,02,56,0.70
2008,11,19,02,57,0.80
2008,11,19,02,58,0.90
2008,11,19,02,59,1.00
2008,11,19,03,00,1.00
2008,11,19,03,01,1.00
2008,11,19,03,02,1.00
2008,11,19,03,03,1.00
2008,11,19,03,04,1.10
2008,11,19,03,05,1.00
2008,11,19,03,06,0.80
2008,11,19,03,07,0.80
2008,11,19,03,08,0.80
2008,11,19,03,09,0.80
2008,11,19,03,10,0.80
2008,11,19,03,11,0.90
2008,11,19,03,12,1.10
2008,11,19,03,13,1.30
2008,11,19,03,14,1.30
2008,11,19,03,15,1.30
2008,11,19,03,16,1.30
2008,11,19,03,17,1.20
2008,11,19,03,18,1.20
2008,11,19,03,19,1.20
2008,11,19,03,20,1.20
2008,11,19,03,21,1.30
2008,11,19,03,22,1.40
2008,11,19,03,23,1.50
2008,11,19,03,24,1.50
2008,11,19,03,25,1.60
2008,11,19,03,26,1.60
2008,11,19,03,27,1.60
2008,11,19,03,28,1.60
2008,11,19,03,29,1.60
2008,11,19,03,30,1.60
2008,11,19,03,31,1.50
2008,11,19,03,32,1.50
2008,11,19,03,33,1.40
2008,11,19,03,34,1.30
2008,11,19,03,35,1.40
2008,11,19,03,36,1.40
2008,11,19,03,37,1.30
2008,11,19,03,38,1.30
2008,11,19,03,39,1.50
2008,11,19,03,40,1.80
2008,11,19,03,41,1.90
2008,11,19,03,42,2.00
2008,11,19,03,43,1.90
2008,11,19,03,44,1.90
2008,11,19,03,45,1.90
2008,11,19,03,46,1.90
2008,11,19,03,47,1.90
2008,11,19,03,48,1.90
2008,11,19,03,49,2.00
2008,11,19,03,50,2.10
2008,11,19,03,51,2.10
2008,11,19,03,52,2.10
2008,11,19,03,53,2.10
2008,11,19,03,54,2.10
2008,11,19,03,55,2.00
2008,11,19,03,56,2.00
2008,11,19,03,57,1.90
2008,11,19,03,58,1.90
2008,11,19,03,59,1.90
2008,11,19,04,00,1.90
2008,11,19,04,01,1.90
2008,11,19,04,02,1.90
2008,11,19,04,03,1.90
2008,11,19,04,04,1.80
2008,11,19,04,05,1.80
2008,11,19,04,06,1.80
2008,11,19,04,07,1.90
2008,11,19,04,08,1.90
2008,11,19,04,09,1.80
2008,11,19,04,10,1.80
2008,11,19,04,11,1.70
2008,11,19,04,12,1.60
2008,11,19,04,13,1.60
2008,11,19,04,14,1.60
2008,11,19,04,15,1.60
2008,11,19,04,16,1.70
2008,11,19,04,17,1.80
2008,11,19,04,18,1.80
2008,11,19,04,19,1.80
2008,11,19,04,20,1.80
2008,11,19,04,21,1.80
2008,11,19,04,22,1.80
2008,11,19,04,23,1.80
2008,11,19,04,24,1.70
2008,11,19,04,25,1.70
2008,11,19,04,26,1.80
2008,11,19,04,27,2.00
2008,11,19,04,28,2.00
2008,11,19,04,29,2.10
2008,11,19,04,30,2.10
2008,11,19,04,31,2.10
2008,11,19,04,32,2.20
2008,11,19,04,33,2.20
2008,11,19,04,34,2.30
2008,11,19,04,35,2.30
2008,11,19,04,36,2.20
2008,11,19,04,37,2.50
2008,11,19,04,38,2.50
2008,11,19,04,39,2.40
2008,11,19,04,40,2.40
2008,11,19,04,41,2.50
2008,11,19,04,42,2.60
2008,11,19,04,43,2.60
2008,11,19,04,44,2.60
2008,11,19,04,45,2.60
2008,11,19,04,46,2.70
2008,11,19,04,47,2.90
2008,11,19,04,48,3.20
2008,11,19,04,49,3.40
2008,11,19,04,50,3.40
2008,11,19,04,51,3.30
2008,11,19,04,52,3.30
2008,11,19,04,53,3.40
2008,11,19,04,54,3.40
2008,11,19,04,55,3.40
2008,11,19,04,56,3.40
2008,11,19,04,57,3.30
2008,11,19,04,58,3.50
2008,11,19,04,59,3.60
2008,11,19,05,00,3.70
2008,11,19,05,01,3.80
2008,11,19,05,02,3.90
2008,11,19,05,03,3.90
2008,11,19,05,04,3.90
2008,11,19,05,05,3.90
2008,11,19,05,06,3.90
2008,11,19,05,07,3.90
2008,11,19,05,08,3.90
2008,11,19,05,09,3.80
2008,11,19,05,10,3.80
2008,11,19,05,11,3.80
2008,11,19,05,12,3.70
2008,11,19,05,13,3.70
2008,11,19,05,14,3.60
2008,11,19,05,15,3.50
2008,11,19,05,16,3.60
2008,11,19,05,17,3.60
2008,11,19,05,18,3.70
2008,11,19,05,19,3.80
2008,11,19,05,20,3.80
2008,11,19,05,21,3.80
2008,11,19,05,22,3.80
2008,11,19,05,23,3.80
2008,11,19,05,24,3.80
2008,11,19,05,25,3.80
2008,11,19,05,26,3.80
2008,11,19,05,27,3.80
2008,11,19,05,28,3.60
2008,11,19,05,29,3.50
2008,11,19,05,30,3.50
2008,11,19,05,31,3.40
2008,11,19,05,32,3.30
2008,11,19,05,33,3.20
2008,11,19,05,34,3.00
2008,11,19,05,35,2.90
2008,11,19,05,36,2.90
2008,11,19,05,37,2.80
2008,11,19,05,38,2.70
2008,11,19,05,39,2.70
2008,11,19,05,40,2.70
2008,11,19,05,41,2.80
2008,11,19,05,42,2.90
2008,11,19,05,43,3.00
2008,11,19,05,44,3.00
2008,11,19,05,45,3.00
2008,11,19,05,46,3.10
2008,11,19,05,47,3.10
2008,11,19,05,48,3.00
2008,11,19,05,49,3.00
2008,11,19,05,50,3.00
2008,11,19,05,51,3.10
2008,11,19,05,52,3.10
2008,11,19,05,53,3.20
2008,11,19,05,54,3.10
2008,11,19,05,55,3.00
2008,11,19,05,56,2.90
2008,11,19,05,57,2.90
2008,11,19,05,58,2.90
2008,11,19,05,59,2.90
2008,11,19,06,00,2.80
2008,11,19,06,01,2.80
2008,11,19,06,02,2.80
2008,11,19,06,03,2.70
2008,11,19,06,04,2.80
2008,11,19,06,05,2.80
2008,11,19,06,06,2.80
2008,11,19,06,07,2.80
2008,11,19,06,08,2.80
2008,11,19,06,09,2.70
2008,11,19,06,10,2.70
2008,11,19,06,11,2.80
2008,11,19,06,12,2.80
2008,11,19,06,13,2.80
2008,11,19,06,14,2.90
2008,11,19,06,15,2.90
2008,11,19,06,16,2.90
2008,11,19,06,17,2.90
2008,11,19,06,18,2.90
2008,11,19,06,19,3.00
2008,11,19,06,20,3.00
2008,11,19,06,21,3.10
2008,11,19,06,22,3.20
2008,11,19,06,23,3.40
2008,11,19,06,24,3.70
2008,11,19,06,25,3.90
2008,11,19,06,26,4.00
2008,11,19,06,27,4.00
2008,11,19,06,28,4.00
2008,11,19,06,29,4.00
2008,11,19,06,30,3.90
2008,11,19,06,31,3.90
2008,11,19,06,32,3.90
2008,11,19,06,33,3.90
2008,11,19,06,34,3.90
2008,11,19,06,35,4.00
2008,11,19,06,36,4.00
2008,11,19,06,37,4.10
2008,11,19,06,38,4.00
2008,11,19,06,39,4.10
2008,11,19,06,40,4.10
2008,11,19,06,41,4.20
2008,11,19,06,42,4.20
2008,11,19,06,43,4.20
2008,11,19,06,44,4.20
2008,11,19,06,45,4.20
2008,11,19,06,46,4.20
2008,11,19,06,47,4.10
2008,11,19,06,48,4.10
2008,11,19,06,49,4.10
2008,11,19,06,50,4.20
2008,11,19,06,51,4.20
2008,11,19,06,52,4.20
2008,11,19,06,53,4.30
2008,11,19,06,54,4.30
2008,11,19,06,55,4.30
2008,11,19,06,56,4.40
2008,11,19,06,57,4.40
2008,11,19,06,58,4.30
2008,11,19,06,59,4.40
2008,11,19,07,00,4.40
2008,11,19,07,01,4.40
2008,11,19,07,02,4.40
2008,11,19,07,03,4.40
2008,11,19,07,04,4.40
2008,11,19,07,05,4.40
2008,11,19,07,06,4.30
2008,11,19,07,07,4.30
2008,11,19,07,08,4.30
2008,11,19,07,09,4.30
2008,11,19,07,10,4.40
2008,11,19,07,11,4.30
2008,11,19,07,12,4.30
2008,11,19,07,13,4.30
2008,11,19,07,14,4.20
2008,11,19,07,15,4.10
2008,11,19,07,16,4.10
2008,11,19,07,17,4.10
2008,11,19,07,18,4.00
2008,11,19,07,19,3.90
2008,11,19,07,20,3.90
2008,11,19,07,21,3.80
2008,11,19,07,22,3.70
2008,11,19,07,23,3.70
2008,11,19,07,24,3.70
2008,11,19,07,25,3.60
2008,11,19,07,26,3.60
2008,11,19,07,27,3.50
2008,11,19,07,28,3.50
2008,11,19,07,29,3.40
2008,11,19,07,30,3.40
2008,11,19,07,31,3.40
2008,11,19,07,32,3.40
2008,11,19,07,33,3.50
2008,11,19,07,34,3.40
2008,11,19,07,35,3.40
2008,11,19,07,36,3.40
2008,11,19,07,37,3.40
2008,11,19,07,38,3.30
2008,11,19,07,39,3.30
2008,11,19,07,40,3.30
2008,11,19,07,41,3.30
2008,11,19,07,42,3.30
2008,11,19,07,43,3.40
2008,11,19,07,44,3.40
2008,11,19,07,45,3.40
2008,11,19,07,46,3.50
2008,11,19,07,47,3.50
2008,11,19,07,48,3.60
2008,11,19,07,49,3.70
2008,11,19,07,50,3.80
2008,11,19,07,51,3.80
2008,11,19,07,52,3.80
2008,11,19,07,53,3.80
2008,11,19,07,54,3.90
2008,11,19,07,55,3.90
2008,11,19,07,56,3.90
2008,11,19,07,57,4.00
2008,11,19,07,58,4.10
2008,11,19,07,59,4.10
2008,11,19,08,00,4.10
2008,11,19,08,01,4.20
2008,11,19,08,02,4.20
2008,11,19,08,03,4.20
2008,11,19,08,04,4.20
2008,11,19,08,05,4.30
2008,11,19,08,06,4.30
2008,11,19,08,07,4.30
2008,11,19,08,08,4.40
2008,11,19,08,09,4.40
2008,11,19,08,10,4.30
2008,11,19,08,11,4.30
2008,11,19,08,12,4.20
2008,11,19,08,13,4.20
2008,11,19,08,14,4.10
2008,11,19,08,15,4.10
2008,11,19,08,16,4.10
2008,11,19,08,17,4.00
2008,11,19,08,18,4.00
2008,11,19,08,19,4.00
2008,11,19,08,20,4.10
2008,11,19,08,21,4.10
2008,11,19,08,22,4.00
2008,11,19,08,23,4.00
2008,11,19,08,24,3.90
2008,11,19,08,25,3.80
2008,11,19,08,26,3.80
2008,11,19,08,27,3.90
2008,11,19,08,28,3.90
2008,11,19,08,29,3.90
2008,11,19,08,30,3.90
2008,11,19,08,31,3.90
2008,11,19,08,32,3.80
2008,11,19,08,33,3.80
2008,11,19,08,34,3.90
2008,11,19,08,35,3.90
2008,11,19,08,36,4.00
2008,11,19,08,37,4.10
2008,11,19,08,38,4.40
2008,11,19,08,39,4.70
2008,11,19,08,40,4.80
2008,11,19,08,41,4.90
2008,11,19,08,42,5.00
2008,11,19,08,43,5.00
2008,11,19,08,44,5.10
2008,11,19,08,45,5.10
2008,11,19,08,46,5.10
2008,11,19,08,47,5.00
2008,11,19,08,48,4.90
2008,11,19,08,49,4.90
2008,11,19,08,50,4.80
2008,11,19,08,51,4.80
2008,11,19,08,52,4.90
2008,11,19,08,53,4.90
2008,11,19,08,54,4.90
2008,11,19,08,55,4.80
2008,11,19,08,56,4.80
2008,11,19,08,57,4.90
2008,11,19,08,58,4.90
2008,11,19,08,59,5.10
2008,11,19,09,00,5.00
2008,11,19,09,01,5.00
2008,11,19,09,02,5.10
2008,11,19,09,03,5.20
2008,11,19,09,04,5.20
2008,11,19,09,05,5.20
2008,11,19,09,06,5.20
2008,11,19,09,07,5.30
2008,11,19,09,08,5.40
2008,11,19,09,09,5.50
2008,11,19,09,10,5.60
2008,11,19,09,11,5.70
2008,11,19,09,12,5.80
2008,11,19,09,13,5.80
2008,11,19,09,14,5.80
2008,11,19,09,15,5.90
2008,11,19,09,16,5.90
2008,11,19,09,17,6.00
2008,11,19,09,18,6.00
2008,11,19,09,19,6.10
2008,11,19,09,20,6.10
2008,11,19,09,21,6.20
2008,11,19,09,22,6.20
2008,11,19,09,23,6.30
2008,11,19,09,24,6.30
2008,11,19,09,25,6.40
2008,11,19,09,26,6.50
2008,11,19,09,27,6.50
2008,11,19,09,28,6.60
2008,11,19,09,29,6.70
2008,11,19,09,30,6.80
2008,11,19,09,31,6.90
2008,11,19,09,32,6.90
2008,11,19,09,33,7.00
2008,11,19,09,34,7.00
2008,11,19,09,35,7.10
2008,11,19,09,36,7.20
2008,11,19,09,37,7.20
2008,11,19,09,38,7.20
2008,11,19,09,39,7.20
2008,11,19,09,40,7.20
2008,11,19,09,41,7.20
2008,11,19,09,42,7.20
2008,11,19,09,43,7.20
2008,11,19,09,44,7.20
2008,11,19,09,45,7.30
2008,11,19,09,46,7.40
2008,11,19,09,47,7.50
2008,11,19,09,48,7.60
2008,11,19,09,49,7.60
2008,11,19,09,50,7.70
2008,11,19,09,51,7.80
2008,11,19,09,52,7.90
2008,11,19,09,53,7.90
2008,11,19,09,54,7.90
2008,11,19,09,55,7.90
2008,11,19,09,56,8.00
2008,11,19,09,57,8.00
2008,11,19,09,58,7.90
2008,11,19,09,59,7.90
2008,11,19,10,00,8.00
2008,11,19,10,01,8.10
2008,11,19,10,02,8.10
2008,11,19,10,03,8.20
2008,11,19,10,04,8.30
2008,11,19,10,05,8.30
2008,11,19,10,06,8.40
2008,11,19,10,07,8.50
2008,11,19,10,08,8.50
2008,11,19,10,09,8.60
2008,11,19,10,10,8.70
2008,11,19,10,11,8.70
2008,11,19,10,12,8.80
2008,11,19,10,13,8.80
2008,11,19,10,14,8.80
2008,11,19,10,15,8.90
2008,11,19,10,16,8.90
2008,11,19,10,17,9.00
2008,11,19,10,18,9.00
2008,11,19,10,19,9.00
2008,11,19,10,20,9.00
2008,11,19,10,21,9.00
2008,11,19,10,22,9.00
2008,11,19,10,23,9.00
2008,11,19,10,24,9.10
2008,11,19,10,25,9.10
2008,11,19,10,26,9.10
2008,11,19,10,27,9.10
2008,11,19,10,28,9.10
2008,11,19,10,29,9.10
2008,11,19,10,30,9.10
2008,11,19,10,31,9.10
2008,11,19,10,32,9.20
2008,11,19,10,33,9.20
2008,11,19,10,34,9.20
2008,11,19,10,35,9.30
2008,11,19,10,36,9.30
2008,11,19,10,37,9.30
2008,11,19,10,38,9.40
2008,11,19,10,39,9.50
2008,11,19,10,40,9.50
2008,11,19,10,41,9.60
2008,11,19,10,42,9.50
2008,11,19,10,43,9.60
2008,11,19,10,44,9.60
2008,11,19,10,45,9.60
2008,11,19,10,46,9.60
2008,11,19,10,47,9.60
2008,11,19,10,48,9.60
2008,11,19,10,49,9.60
2008,11,19,10,50,9.60
2008,11,19,10,51,9.60
2008,11,19,10,52,9.50
2008,11,19,10,53,9.50
2008,11,19,10,54,9.60
2008,11,19,10,55,9.60
2008,11,19,10,56,9.60
2008,11,19,10,57,9.60
2008,11,19,10,58,9.70
2008,11,19,10,59,9.70
2008,11,19,11,00,9.70
2008,11,19,11,01,9.80
2008,11,19,11,02,9.80
2008,11,19,11,03,9.80
2008,11,19,11,04,9.80
2008,11,19,11,05,9.80
2008,11,19,11,06,9.80
2008,11,19,11,07,9.80
2008,11,19,11,08,9.80
2008,11,19,11,09,9.80
2008,11,19,11,10,9.80
2008,11,19,11,11,9.80
2008,11,19,11,12,9.80
2008,11,19,11,13,9.90
2008,11,19,11,14,9.90
2008,11,19,11,15,9.90
2008,11,19,11,16,9.90
2008,11,19,11,17,9.90
2008,11,19,11,18,9.90
2008,11,19,11,19,9.90
2008,11,19,11,20,10.00
2008,11,19,11,21,10.00
2008,11,19,11,22,10.00
2008,11,19,11,23,10.10
2008,11,19,11,24,10.10
2008,11,19,11,25,10.10
2008,11,19,11,26,10.20
2008,11,19,11,27,10.20
2008,11,19,11,28,10.20
2008,11,19,11,29,10.20
2008,11,19,11,30,10.20
2008,11,19,11,31,10.20
2008,11,19,11,32,10.30
2008,11,19,11,33,10.30
2008,11,19,11,34,10.30
2008,11,19,11,35,10.30
2008,11,19,11,36,10.30
2008,11,19,11,37,10.40
2008,11,19,11,38,10.40
2008,11,19,11,39,10.40
2008,11,19,11,40,10.30
2008,11,19,11,41,10.30
2008,11,19,11,42,10.30
2008,11,19,11,43,10.40
2008,11,19,11,44,10.40
2008,11,19,11,45,10.40
2008,11,19,11,46,10.40
2008,11,19,11,47,10.40
2008,11,19,11,48,10.40
2008,11,19,11,49,10.40
2008,11,19,11,50,10.40
2008,11,19,11,51,10.40
2008,11,19,11,52,10.40
2008,11,19,11,53,10.40
2008,11,19,11,54,10.40
2008,11,19,11,55,10.40
2008,11,19,11,56,10.40
2008,11,19,11,57,10.50
2008,11,19,11,58,10.50
2008,11,19,11,59,10.50
2008,11,19,12,00,10.50
2008,11,19,12,01,10.50
2008,11,19,12,02,10.50
2008,11,19,12,03,10.50
2008,11,19,12,04,10.50
2008,11,19,12,05,10.60
2008,11,19,12,06,10.60
2008,11,19,12,07,10.60
2008,11,19,12,08,10.60
2008,11,19,12,09,10.60
2008,11,19,12,10,10.60
2008,11,19,12,11,10.60
2008,11,19,12,12,10.60
2008,11,19,12,13,10.60
2008,11,19,12,14,10.70
2008,11,19,12,15,10.60
2008,11,19,12,16,10.60
2008,11,19,12,17,10.60
2008,11,19,12,18,10.60
2008,11,19,12,19,10.60
2008,11,19,12,20,10.70
2008,11,19,12,21,10.70
2008,11,19,12,22,10.70
2008,11,19,12,23,10.70
2008,11,19,12,24,10.70
2008,11,19,12,25,10.70
2008,11,19,12,26,10.70
2008,11,19,12,27,10.80
2008,11,19,12,28,10.80
2008,11,19,12,29,10.80
2008,11,19,12,30,10.80
2008,11,19,12,31,10.80
2008,11,19,12,32,10.80
2008,11,19,12,33,10.90
2008,11,19,12,34,10.90
2008,11,19,12,35,10.90
2008,11,19,12,36,10.90
2008,11,19,12,37,10.90
2008,11,19,12,38,10.90
2008,11,19,12,39,10.90
2008,11,19,12,40,11.00
2008,11,19,12,41,11.00
2008,11,19,12,42,11.00
2008,11,19,12,43,11.00
2008,11,19,12,44,11.00
2008,11,19,12,45,11.00
2008,11,19,12,46,11.00
2008,11,19,12,47,11.00
2008,11,19,12,48,11.00
2008,11,19,12,49,10.90
2008,11,19,12,50,11.00
2008,11,19,12,51,11.00
2008,11,19,12,52,10.90
2008,11,19,12,53,11.00
2008,11,19,12,54,10.90
2008,11,19,12,55,11.00
2008,11,19,12,56,10.90
2008,11,19,12,57,11.00
2008,11,19,12,58,11.00
2008,11,19,12,59,11.00
2008,11,19,13,00,11.00
2008,11,19,13,01,11.00
2008,11,19,13,02,11.10
2008,11,19,13,03,11.00
2008,11,19,13,04,11.00
2008,11,19,13,05,11.00
2008,11,19,13,06,11.00
2008,11,19,13,07,11.00
2008,11,19,13,08,11.00
2008,11,19,13,09,11.00
2008,11,19,13,10,11.00
2008,11,19,13,11,11.00
2008,11,19,13,12,11.00
2008,11,19,13,13,10.90
2008,11,19,13,14,10.90
2008,11,19,13,15,10.90
2008,11,19,13,16,10.90
2008,11,19,13,17,10.90
2008,11,19,13,18,10.90
2008,11,19,13,19,10.90
2008,11,19,13,20,10.90
2008,11,19,13,21,10.90
2008,11,19,13,22,10.90
2008,11,19,13,23,10.90
2008,11,19,13,24,10.90
2008,11,19,13,25,10.90
2008,11,19,13,26,10.90
2008,11,19,13,27,10.90
2008,11,19,13,28,10.90
2008,11,19,13,29,10.90
2008,11,19,13,30,10.90
2008,11,19,13,31,10.90
2008,11,19,13,32,10.90
2008,11,19,13,33,10.90
2008,11,19,13,34,10.90
2008,11,19,13,35,10.90
2008,11,19,13,36,10.90
2008,11,19,13,37,10.90
2008,11,19,13,38,10.90
2008,11,19,13,39,11.00
2008,11,19,13,40,10.90
2008,11,19,13,41,11.00
2008,11,19,13,42,10.90
2008,11,19,13,43,11.00
2008,11,19,13,44,11.00
2008,11,19,13,45,11.00
2008,11,19,13,46,11.00
2008,11,19,13,47,11.00
2008,11,19,13,48,11.00
2008,11,19,13,49,11.00
2008,11,19,13,50,11.10
2008,11,19,13,51,11.10
2008,11,19,13,52,11.10
2008,11,19,13,53,11.10
2008,11,19,13,54,11.10
2008,11,19,13,55,11.10
2008,11,19,13,56,11.10
2008,11,19,13,57,11.10
2008,11,19,13,58,11.10
2008,11,19,13,59,11.20
2008,11,19,14,00,11.20
2008,11,19,14,01,11.20
2008,11,19,14,02,11.20
2008,11,19,14,03,11.20
2008,11,19,14,04,11.20
2008,11,19,14,05,11.20
2008,11,19,14,06,11.20
2008,11,19,14,07,11.20
2008,11,19,14,08,11.20
2008,11,19,14,09,11.20
2008,11,19,14,10,11.20
2008,11,19,14,11,11.20
2008,11,19,14,12,11.20
2008,11,19,14,13,11.20
2008,11,19,14,14,11.20
2008,11,19,14,15,11.20
2008,11,19,14,16,11.20
2008,11,19,14,17,11.20
2008,11,19,14,18,11.20
2008,11,19,14,19,11.20
2008,11,19,14,20,11.10
2008,11,19,14,21,11.20
2008,11,19,14,22,11.20
2008,11,19,14,23,11.20
2008,11,19,14,24,11.20
2008,11,19,14,25,11.20
2008,11,19,14,26,11.20
2008,11,19,14,27,11.20
2008,11,19,14,28,11.20
2008,11,19,14,29,11.20
2008,11,19,14,30,11.10
2008,11,19,14,31,11.10
2008,11,19,14,32,11.10
2008,11,19,14,33,11.10
2008,11,19,14,34,11.10
2008,11,19,14,35,11.10
2008,11,19,14,36,11.10
2008,11,19,14,37,11.10
2008,11,19,14,38,11.10
2008,11,19,14,39,11.10
2008,11,19,14,40,11.10
2008,11,19,14,41,11.00
2008,11,19,14,42,11.00
2008,11,19,14,43,11.00
2008,11,19,14,44,10.90
2008,11,19,14,45,10.90
2008,11,19,14,46,10.90
2008,11,19,14,47,10.90
2008,11,19,14,48,10.90
2008,11,19,14,49,10.90
2008,11,19,14,50,10.80
2008,11,19,14,51,10.80
2008,11,19,14,52,10.80
2008,11,19,14,53,10.80
2008,11,19,14,54,10.80
2008,11,19,14,55,10.80
2008,11,19,14,56,10.70
2008,11,19,14,57,10.70
2008,11,19,14,58,10.70
2008,11,19,14,59,10.60
2008,11,19,15,00,10.60
2008,11,19,15,01,10.50
2008,11,19,15,02,10.50
2008,11,19,15,03,10.40
2008,11,19,15,04,10.30
2008,11,19,15,05,10.30
2008,11,19,15,06,10.20
2008,11,19,15,07,10.20
2008,11,19,15,08,10.10
2008,11,19,15,09,10.10
2008,11,19,15,10,10.00
2008,11,19,15,11,10.00
2008,11,19,15,12,9.90
2008,11,19,15,13,9.90
2008,11,19,15,14,9.90
2008,11,19,15,15,9.90
2008,11,19,15,16,9.80
2008,11,19,15,17,9.80
2008,11,19,15,18,9.80
2008,11,19,15,19,9.80
2008,11,19,15,20,9.70
2008,11,19,15,21,9.70
2008,11,19,15,22,9.70
2008,11,19,15,23,9.70
2008,11,19,15,24,9.70
2008,11,19,15,25,9.70
2008,11,19,15,26,9.70
2008,11,19,15,27,9.70
2008,11,19,15,28,9.70
2008,11,19,15,29,9.70
2008,11,19,15,30,9.70
2008,11,19,15,31,9.70
2008,11,19,15,32,9.70
2008,11,19,15,33,9.60
2008,11,19,15,34,9.60
2008,11,19,15,35,9.60
2008,11,19,15,36,9.60
2008,11,19,15,37,9.60
2008,11,19,15,38,9.60
2008,11,19,15,39,9.60
2008,11,19,15,40,9.50
2008,11,19,15,41,9.50
2008,11,19,15,42,9.50
2008,11,19,15,43,9.50
2008,11,19,15,44,9.40
2008,11,19,15,45,9.40
2008,11,19,15,46,9.40
2008,11,19,15,47,9.40
2008,11,19,15,48,9.40
2008,11,19,15,49,9.40
2008,11,19,15,50,9.40
2008,11,19,15,51,9.40
2008,11,19,15,52,9.50
2008,11,19,15,53,9.40
2008,11,19,15,54,9.40
2008,11,19,15,55,9.40
2008,11,19,15,56,9.40
2008,11,19,15,57,9.40
2008,11,19,15,58,9.40
2008,11,19,15,59,9.40
2008,11,19,16,00,9.30
2008,11,19,16,01,9.30
2008,11,19,16,02,9.20
2008,11,19,16,03,9.20
2008,11,19,16,04,9.10
2008,11,19,16,05,9.10
2008,11,19,16,06,9.10
2008,11,19,16,07,9.00
2008,11,19,16,08,9.00
2008,11,19,16,09,9.00
2008,11,19,16,10,8.90
2008,11,19,16,11,8.90
2008,11,19,16,12,8.80
2008,11,19,16,13,8.80
2008,11,19,16,14,8.70
2008,11,19,16,15,8.70
2008,11,19,16,16,8.60
2008,11,19,16,17,8.60
2008,11,19,16,18,8.60
2008,11,19,16,19,8.50
2008,11,19,16,20,8.50
2008,11,19,16,21,8.50
2008,11,19,16,22,8.40
2008,11,19,16,23,8.40
2008,11,19,16,24,8.40
2008,11,19,16,25,8.40
2008,11,19,16,26,8.40
2008,11,19,16,27,8.40
2008,11,19,16,28,8.40
2008,11,19,16,29,8.40
2008,11,19,16,30,8.40
2008,11,19,16,31,8.30
2008,11,19,16,32,8.30
2008,11,19,16,33,8.30
2008,11,19,16,34,8.30
2008,11,19,16,35,8.30
2008,11,19,16,36,8.30
2008,11,19,16,37,8.30
2008,11,19,16,38,8.30
2008,11,19,16,39,8.30
2008,11,19,16,40,8.30
2008,11,19,16,41,8.20
2008,11,19,16,42,8.20
2008,11,19,16,43,8.20
2008,11,19,16,44,8.10
2008,11,19,16,45,8.10
2008,11,19,16,46,8.10
2008,11,19,16,47,8.10
2008,11,19,16,48,8.00
2008,11,19,16,49,8.00
2008,11,19,16,50,8.00
2008,11,19,16,51,7.90
2008,11,19,16,52,7.90
2008,11,19,16,53,7.80
2008,11,19,16,54,7.80
2008,11,19,16,55,7.80
2008,11,19,16,56,7.80
2008,11,19,16,57,7.80
2008,11,19,16,58,7.70
2008,11,19,16,59,7.70
2008,11,19,17,00,7.70
2008,11,19,17,01,7.70
2008,11,19,17,02,7.70
2008,11,19,17,03,7.60
2008,11,19,17,04,7.60
2008,11,19,17,05,7.60
2008,11,19,17,06,7.60
2008,11,19,17,07,7.60
2008,11,19,17,08,7.50
2008,11,19,17,09,7.50
2008,11,19,17,10,7.40
2008,11,19,17,11,7.40
2008,11,19,17,12,7.30
2008,11,19,17,13,7.30
2008,11,19,17,14,7.20
2008,11,19,17,15,7.20
2008,11,19,17,16,7.20
2008,11,19,17,17,7.20
2008,11,19,17,18,7.10
2008,11,19,17,19,7.10
2008,11,19,17,20,7.00
2008,11,19,17,21,7.00
2008,11,19,17,22,6.90
2008,11,19,17,23,6.90
2008,11,19,17,24,6.90
2008,11,19,17,25,6.90
2008,11,19,17,26,6.90
2008,11,19,17,27,6.90
2008,11,19,17,28,6.80
2008,11,19,17,29,6.80
2008,11,19,17,30,6.80
2008,11,19,17,31,6.80
2008,11,19,17,32,6.80
2008,11,19,17,33,6.70
2008,11,19,17,34,6.70
2008,11,19,17,35,6.60
2008,11,19,17,36,6.60
2008,11,19,17,37,6.50
2008,11,19,17,38,6.50
2008,11,19,17,39,6.50
2008,11,19,17,40,6.40
2008,11,19,17,41,6.40
2008,11,19,17,42,6.40
2008,11,19,17,43,6.30
2008,11,19,17,44,6.30
2008,11,19,17,45,6.20
2008,11,19,17,46,6.20
2008,11,19,17,47,6.20
2008,11,19,17,48,6.10
2008,11,19,17,49,6.10